QPF
0.16 0.15 0.07 0.02 0.01 0.00 0.00 0.00 0.00 0.00 0.00 0.00 0.00 0.00 0.00 0.00 0.00 0.00 0.00 0.00 0.00 0.00 0.00 0.00 0.00 0.00 0.00 0.00 0.00 0.00 0.00 0.00 0.00 0.00 0.00 0.00 0.00 0.00 0.00 0.00 0.00 0.00 0.00 0.00
0.17 0.14 0.04 0.01 0.01 0.00 0.00 0.00 0.00 0.00 0.00 0.00 0.00 0.00 0.00 0.00 0.00 0.00 0.00 0.00 0.00 0.00 0.00 0.00 0.00 0.00 0.00 0.00 0.00 0.00 0.00 0.00 0.00 0.00 0.00 0.00 0.00 0.00 0.00 0.00 0.00 0.00 0.00 0.00
0.10 0.07 0.03 0.02 0.01 0.01 0.00 0.00 0.00 0.00 0.00 0.00 0.00 0.00 0.00 0.00 0.00 0.00 0.00 0.00 0.00 0.00 0.00 0.00 0.00 0.00 0.00 0.00 0.00 0.00 0.00 0.00 0.00 0.00 0.00 0.00 0.00 0.00 0.00 0.00 0.00 0.00 0.00 0.00
0.07 0.04 0.04 0.03 0.02 0.01 0.01 0.00 0.00 0.00 0.00 0.00 0.00 0.00 0.00 0.00 0.00 0.00 0.00 0.00 0.00 0.00 0.00 0.00 0.00 0.00 0.00 0.00 0.00 0.00 0.00 0.00 0.00 0.00 0.00 0.00 0.00 0.00 0.00 0.00 0.00 0.00 0.00 0.00
0.05 0.04 0.03 0.03 0.01 0.01 0.00 0.00 0.00 0.00 0.00 0.00 0.00 0.00 0.00 0.00 0.00 0.00 0.00 0.00 0.00 0.00 0.00 0.00 0.00 0.00 0.00 0.00 0.00 0.00 0.00 0.00 0.00 0.00 0.00 0.00 0.00 0.00 0.00 0.00 0.00 0.00 0.00 0.00
0.02 0.02 0.02 0.01 0.01 0.01 0.01 0.00 0.00 0.00 0.00 0.00 0.00 0.00 0.00 0.00 0.00 0.00 0.00 0.00 0.00 0.00 0.00 0.00 0.00 0.00 0.00 0.00 0.00 0.00 0.00 0.00 0.00 0.00 0.00 0.00 0.00 0.00 0.00 0.00 0.00 0.00 0.00 0.00
0.02 0.02 0.02 0.01 0.02 0.02 0.01 0.01 0.00 0.00 0.00 0.00 0.00 0.00 0.00 0.00 0.00 0.00 0.00 0.00 0.00 0.00 0.00 0.00 0.00 0.00 0.00 0.00 0.00 0.00 0.00 0.00 0.00 0.00 0.00 0.00 0.00 0.00 0.00 0.00 0.00 0.00 0.00 0.00
0.02 0.02 0.01 0.01 0.02 0.02 0.01 0.00 0.00 0.00 0.00 0.00 0.00 0.00 0.00 0.00 0.00 0.00 0.00 0.00 0.00 0.00 0.00 0.00 0.00 0.00 0.00 0.00 0.00 0.00 0.00 0.00 0.00 0.00 0.00 0.00 0.00 0.00 0.00 0.00 0.00 0.00 0.00 0.00
0.00 0.01 0.00 0.00 0.00 0.00 0.00 0.00 0.00 0.00 0.00 0.00 0.00 0.00 0.00 0.00 0.00 0.00 0.00 0.00 0.00 0.00 0.00 0.00 0.00 0.00 0.00 0.00 0.00 0.00 0.00 0.00 0.00 0.00 0.00 0.00 0.00 0.00 0.00 0.00 0.00 0.00 0.00 0.00
0.00 0.00 0.00 0.00 0.00 0.00 0.00 0.00 0.00 0.00 0.00 0.00 0.00 0.00 0.00 0.00 0.00 0.00 0.00 0.00 0.00 0.00 0.00 0.00 0.00 0.00 0.00 0.00 0.00 0.00 0.00 0.00 0.00 0.00 0.00 0.00 0.00 0.00 0.00 0.00 0.00 0.00 0.00 0.00
0.00 0.00 0.00 0.00 0.00 0.00 0.00 0.00 0.00 0.00 0.00 0.00 0.00 0.00 0.00 0.00 0.00 0.00 0.00 0.00 0.00 0.00 0.00 0.00 0.00 0.00 0.00 0.00 0.00 0.00 0.00 0.00 0.00 0.00 0.00 0.00 0.00 0.00 0.00 0.00 0.00 0.00 0.00 0.00
0.00 0.00 0.00 0.00 0.00 0.00 0.00 0.00 0.00 0.00 0.00 0.00 0.00 0.00 0.00 0.00 0.00 0.00 0.00 0.00 0.00 0.00 0.00 0.00 0.00 0.00 0.00 0.00 0.00 0.00 0.00 0.00 0.00 0.00 0.00 0.00 0.00 0.00 0.00 0.00 0.00 0.00 0.00 0.00
0.00 0.00 0.00 0.00 0.00 0.00 0.00 0.00 0.00 0.00 0.00 0.00 0.00 0.00 0.00 0.00 0.00 0.00 0.00 0.00 0.00 0.00 0.00 0.00 0.00 0.00 0.00 0.00 0.00 0.00 0.00 0.00 0.00 0.00 0.00 0.00 0.00 0.00 0.00 0.00 0.00 0.00 0.00 0.00
0.00 0.00 0.00 0.00 0.00 0.00 0.00 0.00 0.00 0.00 0.00 0.00 0.00 0.00 0.00 0.00 0.00 0.00 0.00 0.00 0.00 0.00 0.00 0.00 0.00 0.00 0.00 0.00 0.00 0.00 0.00 0.00 0.00 0.00 0.00 0.00 0.00 0.00 0.00 0.00 0.00 0.00 0.00 0.00
0.00 0.00 0.00 0.00 0.00 0.00 0.00 0.00 0.00 0.00 0.00 0.00 0.00 0.00 0.00 0.00 0.00 0.00 0.00 0.00 0.00 0.00 0.00 0.00 0.00 0.00 0.00 0.00 0.00 0.00 0.00 0.00 0.00 0.00 0.00 0.00 0.00 0.00 0.00 0.00 0.00 0.00 0.00 0.00
0.00 0.00 0.00 0.00 0.00 0.00 0.00 0.00 0.00 0.00 0.00 0.00 0.00 0.00 0.00 0.00 0.00 0.00 0.00 0.00 0.00 0.00 0.00 0.00 0.00 0.00 0.00 0.00 0.00 0.00 0.00 0.00 0.00 0.00 0.00 0.00 0.00 0.00 0.00 0.00 0.00 0.00 0.00 0.00
0.00 0.00 0.00 0.00 0.00 0.00 0.00 0.00 0.00 0.00 0.00 0.00 0.00 0.00 0.00 0.00 0.00 0.00 0.00 0.00 0.00 0.00 0.00 0.00 0.00 0.00 0.00 0.00 0.00 0.00 0.00 0.00 0.00 0.00 0.00 0.00 0.00 0.00 0.00 0.00 0.00 0.00 0.00 0.00
0.00 0.00 0.00 0.00 0.00 0.00 0.00 0.00 0.00 0.00 0.00 0.00 0.00 0.00 0.00 0.00 0.00 0.00 0.00 0.00 0.00 0.00 0.00 0.00 0.00 0.00 0.00 0.00 0.00 0.00 0.00 0.00 0.00 0.00 0.00 0.00 0.00 0.00 0.00 0.00 0.00 0.00 0.00 0.00
0.00 0.00 0.00 0.00 0.00 0.00 0.00 0.00 0.00 0.00 0.00 0.00 0.00 0.00 0.00 0.00 0.00 0.00 0.00 0.00 0.00 0.00 0.00 0.00 0.00 0.00 0.00 0.00 0.00 0.00 0.00 0.00 0.00 0.00 0.00 0.00 0.00 0.00 0.00 0.00 0.00 0.00 0.00 0.00
0.00 0.00 0.00 0.00 0.00 0.00 0.00 0.00 0.00 0.00 0.00 0.00 0.00 0.00 0.00 0.00 0.00 0.00 0.00 0.00 0.00 0.00 0.00 0.00 0.00 0.00 0.00 0.00 0.00 0.00 0.00 0.00 0.00 0.00 0.00 0.00 0.00 0.00 0.00 0.00 0.00 0.00 0.00 0.00
0.00 0.00 0.00 0.00 0.00 0.00 0.00 0.00 0.00 0.00 0.00 0.00 0.00 0.00 0.00 0.00 0.00 0.00 0.00 0.00 0.00 0.00 0.00 0.00 0.00 0.00 0.00 0.00 0.00 0.00 0.00 0.00 0.00 0.00 0.00 0.00 0.00 0.00 0.00 0.00 0.00 0.00 0.00 0.00
0.00 0.00 0.00 0.00 0.00 0.00 0.00 0.00 0.00 0.00 0.00 0.00 0.00 0.00 0.00 0.00 0.00 0.00 0.00 0.00 0.00 0.00 0.00 0.00 0.00 0.00 0.00 0.00 0.00 0.00 0.00 0.00 0.00 0.00 0.00 0.00 0.00 0.00 0.00 0.00 0.00 0.00 0.00 0.00
0.00 0.00 0.00 0.00 0.00 0.00 0.00 0.00 0.00 0.00 0.00 0.00 0.00 0.00 0.00 0.00 0.00 0.00 0.00 0.00 0.00 0.00 0.00 0.00 0.00 0.00 0.00 0.00 0.00 0.00 0.00 0.00 0.00 0.00 0.00 0.00 0.00 0.00 0.00 0.00 0.00 0.00 0.00 0.00
0.00 0.00 0.00 0.00 0.00 0.00 0.00 0.00 0.00 0.00 0.00 0.00 0.00 0.00 0.00 0.00 0.00 0.00 0.00 0.00 0.00 0.00 0.00 0.00 0.00 0.00 0.00 0.00 0.00 0.00 0.00 0.00 0.00 0.00 0.00 0.00 0.00 0.00 0.00 0.00 0.00 0.00 0.00 0.00
0.00 0.00 0.00 0.00 0.00 0.00 0.00 0.00 0.00 0.00 0.00 0.00 0.00 0.00 0.00 0.00 0.00 0.00 0.00 0.00 0.00 0.00 0.00 0.00 0.00 0.00 0.00 0.00 0.00 0.00 0.00 0.00 0.00 0.00 0.00 0.00 0.00 0.00 0.00 0.00 0.00 0.00 0.00 0.00
0.00 0.00 0.00 0.00 0.00 0.00 0.00 0.00 0.00 0.00 0.00 0.00 0.00 0.00 0.00 0.00 0.00 0.00 0.00 0.00 0.00 0.00 0.00 0.00 0.00 0.00 0.00 0.00 0.00 0.00 0.00 0.00 0.00 0.00 0.00 0.00 0.00 0.00 0.00 0.00 0.00 0.00 0.00 0.00
MSLP
1012.93 1013.30 1013.74 1014.22 1014.73 1015.23 1015.67 1016.01 1016.17 1016.13 1015.87 1015.40 1014.76 1014.03 1013.29 1012.65 1012.18 1011.91 1011.85 1011.96 1012.17 1012.40 1012.57 1012.59 1012.43 1012.09 1011.62 1011.06 1010.51 1010.02 1009.68 1009.52 1009.52 1009.68 1009.95 1010.26 1010.57 1010.83 1011.01 1011.11 1011.13 1011.09 1011.03 1010.96
1012.62 1012.97 1013.39 1013.87 1014.42 1014.99 1015.53 1015.97 1016.25 1016.30 1016.11 1015.67 1015.03 1014.27 1013.50 1012.81 1012.30 1012.02 1011.98 1012.13 1012.42 1012.74 1012.99 1013.08 1012.98 1012.68 1012.22 1011.65 1011.08 1010.58 1010.22 1010.05 1010.06 1010.23 1010.50 1010.81 1011.11 1011.34 1011.48 1011.53 1011.50 1011.42 1011.31 1011.21
1012.32 1012.63 1013.03 1013.52 1014.10 1014.73 1015.36 1015.91 1016.29 1016.44 1016.31 1015.91 1015.28 1014.50 1013.68 1012.95 1012.39 1012.08 1012.04 1012.22 1012.55 1012.93 1013.26 1013.43 1013.40 1013.16 1012.75 1012.23 1011.69 1011.22 1010.89 1010.74 1010.78 1010.96 1011.24 1011.55 1011.83 1012.03 1012.13 1012.13 1012.05 1011.91 1011.76 1011.62
1012.04 1012.32 1012.70 1013.19 1013.79 1014.48 1015.19 1015.83 1016.31 1016.55 1016.49 1016.12 1015.50 1014.70 1013.83 1013.04 1012.43 1012.08 1012.01 1012.18 1012.54 1012.97 1013.35 1013.61 1013.66 1013.51 1013.18 1012.75 1012.29 1011.89 1011.62 1011.53 1011.60 1011.81 1012.10 1012.40 1012.65 1012.82 1012.88 1012.83 1012.69 1012.52 1012.32 1012.13
1011.78 1012.04 1012.40 1012.89 1013.52 1014.26 1015.04 1015.76 1016.32 1016.63 1016.62 1016.29 1015.67 1014.84 1013.94 1013.09 1012.42 1012.01 1011.90 1012.05 1012.41 1012.86 1013.30 1013.63 1013.78 1013.74 1013.53 1013.21 1012.86 1012.56 1012.39 1012.36 1012.48 1012.71 1012.99 1013.28 1013.50 1013.63 1013.64 1013.55 1013.37 1013.15 1012.91 1012.68
1011.53 1011.77 1012.12 1012.63 1013.28 1014.07 1014.90 1015.69 1016.31 1016.67 1016.71 1016.39 1015.77 1014.92 1013.98 1013.08 1012.35 1011.89 1011.73 1011.85 1012.20 1012.68 1013.17 1013.57 1013.83 1013.90 1013.82 1013.64 1013.42 1013.23 1013.15 1013.19 1013.34 1013.59 1013.87 1014.13 1014.31 1014.40 1014.36 1014.23 1014.02 1013.76 1013.48 1013.21
1011.24 1011.48 1011.84 1012.36 1013.05 1013.87 1014.75 1015.59 1016.25 1016.65 1016.71 1016.41 1015.78 1014.92 1013.95 1013.01 1012.24 1011.74 1011.54 1011.64 1011.99 1012.48 1013.02 1013.51 1013.86 1014.06 1014.12 1014.07 1013.97 1013.90 1013.90 1013.99 1014.17 1014.41 1014.67 1014.89 1015.04 1015.07 1015.00 1014.83 1014.59 1014.31 1014.01 1013.71
1010.90 1011.15 1011.52 1012.07 1012.79 1013.64 1014.56 1015.42 1016.11 1016.53 1016.60 1016.31 1015.69 1014.82 1013.84 1012.88 1012.09 1011.57 1011.35 1011.45 1011.81 1012.33 1012.92 1013.49 1013.94 1014.26 1014.44 1014.52 1014.54 1014.55 1014.62 1014.74 1014.93 1015.15 1015.37 1015.55 1015.65 1015.64 1015.53 1015.34 1015.08 1014.79 1014.47 1014.15
1010.48 1010.74 1011.14 1011.71 1012.46 1013.34 1014.28 1015.16 1015.86 1016.29 1016.36 1016.07 1015.46 1014.60 1013.63 1012.69 1011.91 1011.39 1011.19 1011.31 1011.69 1012.26 1012.91 1013.55 1014.10 1014.53 1014.81 1014.99 1015.10 1015.19 1015.29 1015.43 1015.60 1015.79 1015.96 1016.09 1016.14 1016.10 1015.96 1015.75 1015.49 1015.19 1014.87 1014.54
1009.97 1010.25 1010.68 1011.29 1012.06 1012.96 1013.91 1014.79 1015.49 1015.90 1015.98 1015.69 1015.09 1014.26 1013.33 1012.43 1011.69 1011.22 1011.06 1011.22 1011.65 1012.26 1012.98 1013.69 1014.32 1014.84 1015.22 1015.48 1015.65 1015.78 1015.90 1016.03 1016.18 1016.32 1016.44 1016.52 1016.52 1016.45 1016.30 1016.08 1015.82 1015.52 1015.20 1014.86
1009.39 1009.71 1010.17 1010.80 1011.60 1012.50 1013.44 1014.31 1014.99 1015.38 1015.45 1015.18 1014.60 1013.82 1012.94 1012.11 1011.45 1011.05 1010.96 1011.17 1011.66 1012.33 1013.11 1013.88 1014.58 1015.17 1015.61 1015.93 1016.15 1016.30 1016.42 1016.53 1016.64 1016.74 1016.82 1016.85 1016.82 1016.72 1016.55 1016.33 1016.07 1015.78 1015.46 1015.11
1008.81 1009.16 1009.65 1010.30 1011.11 1012.00 1012.92 1013.75 1014.39 1014.76 1014.81 1014.55 1014.01 1013.29 1012.49 1011.75 1011.19 1010.88 1010.87 1011.16 1011.71 1012.44 1013.26 1014.08 1014.83 1015.46 1015.95 1016.31 1016.55 1016.72 1016.84 1016.93 1017.01 1017.07 1017.11 1017.10 1017.04 1016.93 1016.75 1016.53 1016.26 1015.96 1015.63 1015.27
1008.27 1008.66 1009.18 1009.84 1010.63 1011.50 1012.36 1013.14 1013.72 1014.06 1014.10 1013.85 1013.36 1012.72 1012.02 1011.39 1010.94 1010.73 1010.81 1011.18 1011.78 1012.55 1013.41 1014.26 1015.04 1015.70 1016.22 1016.60 1016.87 1017.04 1017.16 1017.24 1017.30 1017.33 1017.34 1017.31 1017.23 1017.09 1016.91 1016.67 1016.39 1016.08 1015.73 1015.34
1007.86 1008.27 1008.80 1009.45 1010.21 1011.02 1011.81 1012.50 1013.02 1013.31 1013.34 1013.12 1012.69 1012.14 1011.56 1011.05 1010.72 1010.63 1010.80 1011.23 1011.87 1012.67 1013.55 1014.41 1015.21 1015.88 1016.42 1016.81 1017.09 1017.28 1017.40 1017.48 1017.53 1017.55 1017.54 1017.49 1017.39 1017.24 1017.03 1016.77 1016.47 1016.12 1015.74 1015.32
1007.61 1008.04 1008.57 1009.18 1009.86 1010.58 1011.27 1011.87 1012.31 1012.55 1012.57 1012.39 1012.04 1011.59 1011.14 1010.78 1010.57 1010.59 1010.84 1011.33 1012.01 1012.82 1013.69 1014.55 1015.34 1016.01 1016.56 1016.97 1017.26 1017.46 1017.59 1017.68 1017.72 1017.74 1017.72 1017.65 1017.54 1017.36 1017.13 1016.84 1016.50 1016.12 1015.69 1015.23
1007.57 1008.00 1008.48 1009.02 1009.61 1010.21 1010.77 1011.25 1011.61 1011.80 1011.82 1011.68 1011.42 1011.11 1010.80 1010.58 1010.51 1010.64 1010.98 1011.51 1012.21 1013.02 1013.87 1014.71 1015.48 1016.14 1016.68 1017.10 1017.41 1017.62 1017.77 1017.86 1017.91 1017.93 1017.90 1017.82 1017.68 1017.48 1017.22 1016.89 1016.51 1016.08 1015.61 1015.09
1007.73 1008.12 1008.53 1008.97 1009.42 1009.88 1010.30 1010.66 1010.92 1011.07 1011.10 1011.03 1010.88 1010.71 1010.56 1010.50 1010.57 1010.80 1011.21 1011.79 1012.49 1013.28 1014.10 1014.91 1015.65 1016.29 1016.82 1017.24 1017.56 1017.80 1017.95 1018.06 1018.11 1018.12 1018.07 1017.97 1017.81 1017.58 1017.28 1016.92 1016.50 1016.02 1015.50 1014.94
1008.05 1008.38 1008.69 1009.00 1009.30 1009.59 1009.86 1010.09 1010.27 1010.40 1010.46 1010.46 1010.44 1010.42 1010.43 1010.53 1010.74 1011.08 1011.55 1012.16 1012.86 1013.62 1014.41 1015.17 1015.87 1016.49 1017.01 1017.43 1017.75 1017.99 1018.16 1018.26 1018.30 1018.30 1018.23 1018.10 1017.91 1017.65 1017.32 1016.92 1016.46 1015.95 1015.39 1014.80
1008.47 1008.72 1008.91 1009.07 1009.21 1009.34 1009.46 1009.58 1009.70 1009.81 1009.91 1010.01 1010.12 1010.25 1010.43 1010.68 1011.02 1011.45 1011.98 1012.60 1013.29 1014.02 1014.76 1015.48 1016.14 1016.73 1017.23 1017.64 1017.96 1018.20 1018.36 1018.45 1018.48 1018.45 1018.35 1018.19 1017.96 1017.66 1017.30 1016.87 1016.39 1015.86 1015.28 1014.67
1008.92 1009.07 1009.14 1009.16 1009.15 1009.14 1009.14 1009.17 1009.24 1009.36 1009.52 1009.71 1009.95 1010.23 1010.56 1010.94 1011.39 1011.89 1012.46 1013.09 1013.76 1014.45 1015.14 1015.81 1016.43 1016.99 1017.47 1017.87 1018.18 1018.41 1018.55 1018.62 1018.61 1018.54 1018.40 1018.20 1017.93 1017.60 1017.21 1016.77 1016.27 1015.73 1015.15 1014.52
1009.31 1009.37 1009.34 1009.25 1009.12 1009.00 1008.92 1008.90 1008.96 1009.10 1009.32 1009.61 1009.96 1010.36 1010.81 1011.29 1011.82 1012.37 1012.96 1013.58 1014.21 1014.86 1015.51 1016.13 1016.71 1017.24 1017.70 1018.08 1018.38 1018.58 1018.70 1018.73 1018.68 1018.56 1018.37 1018.12 1017.81 1017.45 1017.04 1016.58 1016.08 1015.55 1014.96 1014.34
1009.58 1009.59 1009.49 1009.33 1009.14 1008.97 1008.85 1008.82 1008.89 1009.06 1009.34 1009.71 1010.15 1010.65 1011.17 1011.72 1012.28 1012.86 1013.44 1014.03 1014.62 1015.22 1015.82 1016.40 1016.95 1017.45 1017.89 1018.25 1018.52 1018.71 1018.79 1018.78 1018.68 1018.50 1018.25 1017.95 1017.59 1017.20 1016.77 1016.30 1015.81 1015.27 1014.70 1014.08
1009.70 1009.69 1009.58 1009.41 1009.21 1009.05 1008.95 1008.94 1009.05 1009.28 1009.61 1010.04 1010.53 1011.07 1011.63 1012.20 1012.76 1013.32 1013.87 1014.41 1014.96 1015.51 1016.06 1016.60 1017.12 1017.60 1018.02 1018.36 1018.61 1018.77 1018.81 1018.75 1018.60 1018.37 1018.06 1017.70 1017.30 1016.87 1016.42 1015.94 1015.44 1014.91 1014.34 1013.73
1009.67 1009.68 1009.61 1009.49 1009.35 1009.25 1009.21 1009.27 1009.44 1009.72 1010.09 1010.55 1011.06 1011.61 1012.16 1012.71 1013.23 1013.74 1014.24 1014.74 1015.23 1015.73 1016.24 1016.75 1017.24 1017.69 1018.09 1018.42 1018.65 1018.77 1018.78 1018.68 1018.47 1018.18 1017.82 1017.40 1016.96 1016.49 1016.00 1015.51 1015.00 1014.46 1013.89 1013.27
1009.50 1009.58 1009.60 1009.58 1009.56 1009.56 1009.63 1009.77 1010.01 1010.33 1010.74 1011.20 1011.70 1012.21 1012.72 1013.21 1013.68 1014.13 1014.57 1015.01 1015.45 1015.91 1016.38 1016.86 1017.33 1017.76 1018.14 1018.44 1018.64 1018.73 1018.70 1018.55 1018.30 1017.95 1017.54 1017.08 1016.58 1016.08 1015.56 1015.03 1014.50 1013.95 1013.36 1012.74
1009.25 1009.43 1009.57 1009.69 1009.80 1009.95 1010.13 1010.38 1010.68 1011.05 1011.46 1011.91 1012.37 1012.83 1013.27 1013.69 1014.09 1014.48 1014.86 1015.25 1015.65 1016.08 1016.52 1016.97 1017.41 1017.81 1018.16 1018.43 1018.60 1018.65 1018.58 1018.39 1018.09 1017.70 1017.25 1016.74 1016.21 1015.66 1015.11 1014.55 1013.98 1013.40 1012.80 1012.15
Thickness
5591 5593 5599 5610 5622 5628 5626 5628 5630 5638 5650 5653 5654 5662 5681 5692 5694 5694 5692 5693 5694 5696 5697 5698 5700 5701 5705 5707 5711 5715 5719 5718 5716 5711 5706 5700 5695 5692 5688 5686 5683 5680 5677 5674
5585 5594 5610 5618 5619 5622 5622 5624 5628 5636 5646 5650 5652 5661 5678 5687 5693 5692 5689 5688 5689 5688 5689 5691 5691 5691 5693 5697 5702 5706 5707 5706 5705 5701 5696 5691 5686 5681 5678 5675 5673 5671 5668 5665
5591 5604 5614 5613 5611 5613 5618 5622 5625 5628 5635 5647 5649 5659 5672 5685 5688 5687 5687 5685 5682 5682 5682 5682 5683 5683 5685 5688 5690 5694 5694 5693 5691 5689 5686 5681 5676 5670 5666 5662 5659 5657 5655 5652
5587 5604 5610 5610 5611 5614 5615 5625 5625 5625 5622 5623 5637 5633 5661 5675 5681 5681 5679 5677 5675 5675 5675 5676 5678 5679 5678 5677 5679 5680 5680 5679 5676 5675 5672 5667 5660 5654 5648 5647 5646 5645 5643 5640
5586 5600 5606 5609 5616 5619 5620 5625 5623 5622 5619 5619 5628 5630 5654 5669 5672 5675 5674 5672 5669 5668 5669 5671 5672 5672 5669 5668 5667 5667 5667 5665 5662 5660 5657 5653 5647 5641 5639 5637 5635 5633 5630 5627
5587 5600 5609 5615 5619 5620 5620 5618 5614 5610 5612 5612 5626 5624 5645 5660 5671 5675 5672 5668 5665 5662 5663 5664 5665 5663 5660 5657 5656 5655 5655 5651 5648 5646 5642 5638 5633 5629 5626 5623 5620 5618 5615 5613
5578 5590 5603 5612 5606 5607 5611 5608 5598 5600 5599 5610 5627 5625 5649 5673 5678 5678 5675 5666 5660 5657 5656 5657 5656 5654 5650 5647 5645 5644 5642 5637 5634 5632 5629 5624 5620 5615 5611 5608 5605 5603 5601 5598
5574 5580 5596 5608 5611 5607 5609 5609 5598 5594 5597 5608 5622 5623 5655 5674 5674 5675 5675 5665 5656 5652 5650 5651 5649 5644 5640 5637 5635 5633 5630 5624 5621 5619 5615 5611 5607 5603 5598 5594 5590 5587 5583 5580
5585 5588 5602 5611 5619 5616 5605 5605 5612 5602 5604 5603 5617 5634 5656 5673 5668 5667 5664 5657 5651 5648 5646 5645 5641 5635 5631 5628 5624 5621 5618 5613 5609 5606 5603 5598 5594 5589 5584 5580 5575 5571 5566 5562
5597 5589 5601 5609 5613 5614 5617 5613 5598 5601 5599 5602 5617 5629 5645 5665 5665 5658 5653 5651 5647 5644 5641 5638 5632 5626 5621 5617 5613 5610 5607 5602 5597 5593 5590 5585 5579 5575 5570 5565 5560 5554 5548 5543
5600 5591 5593 5603 5607 5606 5606 5606 5608 5602 5600 5598 5605 5626 5649 5654 5656 5652 5648 5645 5642 5639 5636 5630 5622 5616 5611 5606 5602 5599 5595 5590 5585 5581 5576 5570 5565 5559 5554 5549 5543 5537 5531 5526
5600 5592 5586 5598 5610 5614 5616 5611 5606 5601 5597 5594 5598 5620 5650 5645 5648 5648 5644 5642 5639 5636 5630 5621 5612 5606 5600 5595 5592 5588 5583 5579 5573 5567 5561 5555 5549 5544 5538 5532 5527 5521 5515 5509
5602 5595 5586 5587 5595 5604 5610 5609 5611 5608 5599 5587 5594 5620 5643 5640 5644 5645 5643 5640 5635 5630 5620 5610 5602 5596 5590 5585 5581 5577 5571 5566 5559 5553 5547 5540 5534 5528 5522 5516 5511 5505 5499 5492
5609 5600 5598 5596 5603 5604 5605 5608 5608 5607 5598 5593 5601 5620 5634 5638 5640 5642 5641 5637 5630 5621 5612 5601 5593 5586 5580 5575 5570 5564 5558 5552 5546 5539 5532 5525 5518 5512 5506 5500 5495 5488 5481 5473
5608 5600 5603 5607 5610 5611 5614 5612 5607 5609 5610 5606 5613 5614 5628 5634 5637 5637 5634 5629 5621 5612 5603 5594 5585 5577 5571 5565 5558 5551 5545 5538 5532 5525 5517 5509 5502 5496 5490 5484 5477 5469 5460 5451
5605 5601 5603 5601 5607 5612 5613 5612 5608 5611 5611 5612 5617 5617 5626 5629 5629 5627 5625 5621 5615 5606 5597 5587 5578 5568 5560 5553 5546 5539 5532 5525 5517 5509 5501 5494 5488 5481 5474 5466 5458 5449 5440 5430
5601 5603 5597 5592 5601 5609 5606 5613 5610 5612 5616 5615 5612 5620 5623 5622 5621 5619 5616 5614 5609 5601 5589 5579 5569 5560 5551 5542 5534 5526 5517 5509 5501 5493 5486 5479 5472 5464 5455 5447 5438 5429 5419 5409
5600 5597 5589 5585 5596 5591 5615 5620 5618 5615 5616 5619 5620 5619 5618 5615 5610 5606 5601 5601 5599 5591 5578 5568 5558 5548 5538 5529 5520 5511 5503 5494 5486 5477 5469 5462 5454 5446 5437 5427 5417 5407 5398 5387
5599 5597 5588 5583 5590 5598 5610 5616 5613 5611 5608 5612 5610 5608 5606 5603 5601 5597 5595 5588 5584 5576 5567 5557 5546 5535 5524 5515 5506 5497 5488 5479 5469 5460 5452 5444 5436 5428 5418 5407 5396 5387 5378 5369
5590 5593 5586 5583 5588 5591 5613 5617 5617 5611 5596 5605 5604 5601 5597 5594 5587 5585 5585 5574 5566 5559 5552 5542 5531 5520 5510 5501 5492 5482 5472 5462 5453 5444 5435 5427 5418 5409 5398 5387 5376 5367 5358 5352
5586 5584 5581 5582 5585 5594 5607 5610 5611 5597 5601 5598 5596 5593 5589 5583 5580 5576 5567 5559 5552 5545 5536 5526 5516 5505 5496 5486 5477 5467 5456 5446 5437 5428 5419 5410 5400 5389 5379 5368 5358 5349 5343 5338
5584 5578 5576 5575 5579 5589 5602 5599 5598 5596 5589 5588 5586 5584 5582 5577 5574 5564 5556 5547 5539 5530 5520 5511 5500 5490 5481 5471 5461 5451 5441 5431 5422 5412 5403 5393 5381 5370 5362 5351 5343 5334 5326 5321
5576 5584 5581 5584 5587 5590 5593 5594 5589 5584 5581 5580 5577 5577 5575 5571 5564 5557 5546 5535 5525 5515 5505 5495 5485 5475 5464 5454 5444 5434 5426 5416 5406 5396 5386 5375 5366 5354 5344 5335 5328 5321 5313 5305
5571 5573 5572 5576 5581 5583 5580 5579 5579 5579 5577 5573 5570 5567 5563 5559 5553 5544 5531 5520 5510 5499 5489 5479 5469 5459 5448 5438 5428 5419 5411 5401 5391 5380 5369 5360 5351 5343 5333 5324 5315 5307 5299 5292
5575 5566 5568 5571 5573 5570 5573 5573 5571 5567 5562 5559 5555 5551 5547 5543 5536 5527 5514 5504 5493 5483 5473 5463 5453 5443 5432 5422 5413 5405 5395 5386 5375 5364 5355 5346 5338 5329 5323 5316 5305 5297 5291 5280
5560 5562 5566 5569 5567 5562 5562 5565 5562 5558 5551 5544 5540 5534 5525 5521 5516 5507 5497 5488 5478 5468 5458 5447 5436 5426 5416 5406 5397 5389 5380 5369 5358 5350 5342 5333 5325 5317 5311 5305 5303 5296 5286 5279